Date String (YYYY-MM-DD hh:mm:ss) UTC,Instrument flags,Ambient pressure (hPa),Sample flow (lpm),Bypass flow (lpm),Sample temperature (°C),Ambient temperature (°C),ASC tube jacket temperature (°C),LED temperature (°C),Box temperature (°C),Sample RH (%),Span deviation,Mass concentration (μg/m³),Mass concentration (μg/m³),Mass concentration (μg/m³)
DateTimeUTC,F1_M11,P_M11,Q1_M11,Q2_M11,T1_M11,T2_M11,T3_M11,T4_M11,T5_M11,U1_M11,ZSPAN_M11,X0_M11,X2_M11,X1_M11
2022-05-06 07:00:00,,0822.1,5.00,0.00,29.9,28.9,00.0,39.0,31.6,18.4,0000.0,0012.92,0006.53,0005.35
2022-05-06 07:01:00,,0822.1,5.00,0.00,29.9,28.9,00.0,39.0,31.6,18.5,0000.0,0012.72,0006.58,0005.39
2022-05-06 07:02:00,,0822.1,4.98,0.00,29.9,28.9,00.0,39.0,31.6,18.5,0000.0,0012.83,0006.58,0005.40
2022-05-06 07:03:00,,0822.1,4.99,0.00,29.9,28.9,00.0,39.0,31.6,18.5,0000.0,0012.88,0006.53,0005.40
2022-05-06 07:04:00,,0822.1,5.00,0.00,29.9,29.0,00.0,39.0,31.6,18.5,0000.0,0012.79,0006.55,0005.42
2022-05-06 07:05:00,,0822.1,5.00,0.00,29.9,29.0,00.0,39.0,31.7,18.3,0000.0,0012.85,0006.58,0005.45
2022-05-06 07:06:00,,0822.1,4.99,0.00,29.9,29.0,00.0,38.9,31.7,18.2,0000.0,0012.75,0006.53,0005.48
2022-05-06 07:07:00,,0822.2,5.00,0.00,30.0,29.0,00.0,38.9,31.7,18.3,0000.0,0012.66,0006.54,0005.50
2022-05-06 07:08:00,,0822.1,5.00,0.00,30.0,29.0,00.0,38.9,31.7,18.3,0000.0,0011.71,0006.55,0005.52
2022-05-06 07:09:00,,0822.1,4.99,0.00,30.0,29.0,00.0,38.9,31.7,18.2,0000.0,0011.60,0006.56,0005.53
2022-05-06 07:10:00,,0822.1,4.99,0.00,30.0,29.0,00.0,38.9,31.7,18.0,0000.0,0011.61,0006.55,0005.53
2022-05-06 07:11:00,,0822.1,5.01,0.00,30.0,29.0,00.0,38.9,31.7,18.1,0000.0,0011.52,0006.58,0005.52
2022-05-06 07:12:00,,0822.1,5.01,0.00,30.0,29.0,00.0,38.9,31.7,18.2,0000.0,0011.72,0006.55,0005.53
2022-05-06 07:13:00,,0822.1,5.00,0.00,30.0,29.1,00.0,38.9,31.7,18.3,0000.0,0011.94,0006.57,0005.53
2022-05-06 07:14:00,,0822.1,4.99,0.00,30.0,29.1,00.0,38.9,31.7,18.0,0000.0,0011.78,0006.56,0005.53
2022-05-06 07:15:00,,0822.0,5.02,0.00,30.0,29.1,00.0,39.0,31.8,17.6,0000.0,0011.69,0006.51,0005.50
2022-05-06 07:16:00,,0822.0,4.99,0.00,30.0,29.1,00.0,39.0,31.7,17.3,0000.0,0011.80,0006.48,0005.45
2022-05-06 07:17:00,,0822.0,5.01,0.00,30.0,29.1,00.0,39.0,31.8,17.1,0000.0,0011.98,0006.46,0005.40
2022-05-06 07:18:00,,0821.9,5.00,0.00,30.0,29.1,00.0,39.0,31.7,17.1,0000.0,0012.39,0006.49,0005.38
2022-05-06 07:19:00,,0821.9,4.99,0.00,30.0,29.1,00.0,39.0,31.7,17.3,0000.0,0013.13,0006.45,0005.34
2022-05-06 07:20:00,,0821.9,5.01,0.00,30.0,29.1,00.0,39.0,31.8,17.6,0000.0,0013.75,0006.40,0005.31
2022-05-06 07:21:00,,0821.9,5.00,0.00,30.0,29.1,00.0,39.0,31.8,17.4,0000.0,0013.72,0006.39,0005.29
2022-05-06 07:22:00,,0822.0,5.00,0.00,30.0,29.1,00.0,39.0,31.8,16.2,0000.0,0013.67,0006.34,0005.23
2022-05-06 07:23:00,,0821.8,4.99,0.00,30.0,29.0,00.0,39.0,31.8,15.0,0000.0,0013.05,0006.14,0005.04
2022-05-06 07:24:00,,0821.7,5.01,0.00,30.0,29.0,00.0,39.0,31.8,15.7,0000.0,0012.34,0005.95,0004.90
2022-05-06 07:25:00,,0821.8,4.99,0.00,30.0,29.0,00.0,39.0,31.7,15.7,0000.0,0012.21,0005.81,0004.75
2022-05-06 07:26:00,,0821.8,5.00,0.00,30.0,29.0,00.0,39.0,31.7,15.6,0000.0,0012.37,0005.80,0004.64
2022-05-06 07:27:00,,0821.8,5.01,0.00,30.0,29.0,00.0,38.9,31.7,15.3,0000.0,0012.00,0005.65,0004.54
2022-05-06 07:28:00,,0821.8,4.99,0.00,29.9,29.0,00.0,38.9,31.7,14.5,0000.0,0011.62,0005.53,0004.42
2022-05-06 07:29:00,,0821.7,5.00,0.00,29.9,29.0,00.0,38.9,31.6,14.1,0000.0,0011.07,0005.33,0004.27
2022-05-06 07:30:00,,0821.8,5.01,0.00,29.9,28.9,00.0,38.9,31.6,14.2,0000.0,0010.11,0005.13,0004.11
2022-05-06 07:31:00,,0821.6,5.01,0.00,29.9,28.9,00.0,38.9,31.6,14.3,0000.0,0009.30,0004.96,0003.95
2022-05-06 07:32:00,,0821.7,5.00,0.00,29.8,28.9,00.0,38.9,31.5,13.8,0000.0,0009.18,0004.80,0003.78
2022-05-06 07:33:00,,0821.7,5.01,0.00,29.8,28.9,00.0,38.9,31.5,13.8,0000.0,0008.85,0004.58,0003.63
2022-05-06 07:34:00,,0821.7,4.99,0.00,29.8,28.8,00.0,38.9,31.4,14.8,0000.0,0008.80,0004.55,0003.60
2022-05-06 07:35:00,,0821.6,5.00,0.00,29.8,28.8,00.0,38.8,31.4,14.4,0000.0,0008.80,0004.50,0003.54
2022-05-06 07:36:00,,0821.6,5.01,0.00,29.7,28.8,00.0,38.8,31.4,14.0,0000.0,0008.70,0004.42,0003.48
2022-05-06 07:37:00,,0821.6,5.00,0.00,29.7,28.8,00.0,38.8,31.4,13.5,0000.0,0008.55,0004.27,0003.38
2022-05-06 07:38:00,,0821.5,5.00,0.00,29.7,28.7,00.0,38.8,31.3,12.9,0000.0,0008.45,0004.16,0003.28
2022-05-06 07:39:00,,0821.5,5.00,0.00,29.7,28.7,00.0,38.8,31.4,12.5,0000.0,0008.24,0004.04,0003.19
2022-05-06 07:40:00,,0821.6,5.01,0.00,29.7,28.7,00.0,38.8,31.4,13.3,0000.0,0008.14,0003.96,0003.14
2022-05-06 07:41:00,,0821.4,4.99,0.00,29.6,28.7,00.0,38.7,31.4,12.6,0000.0,0008.13,0003.92,0003.05
2022-05-06 07:42:00,,0821.4,5.01,0.00,29.6,28.7,00.0,38.7,31.3,12.3,0000.0,0008.22,0003.90,0002.92
2022-05-06 07:43:00,,0821.4,5.00,0.00,29.6,28.7,00.0,38.7,31.3,12.4,0000.0,0008.46,0003.79,0002.81
2022-05-06 07:44:00,,0821.4,4.99,0.00,29.6,28.7,00.0,38.7,31.3,12.4,0000.0,0008.62,0003.76,0002.72
2022-05-06 07:45:00,,0821.4,5.00,0.00,29.6,28.7,00.0,38.7,31.3,12.2,0000.0,0008.99,0003.69,0002.59
2022-05-06 07:46:00,,0821.4,5.01,0.00,29.6,28.7,00.0,38.7,31.3,12.8,0000.0,0008.92,0003.65,0002.45
2022-05-06 07:47:00,,0821.4,5.00,0.00,29.6,28.7,00.0,38.7,31.3,13.7,0000.0,0008.90,0003.63,0002.37
2022-05-06 07:48:00,,0821.4,4.99,0.00,29.6,28.7,00.0,38.6,31.3,15.6,0000.0,0008.82,0003.64,0002.41
2022-05-06 07:49:00,,0821.4,5.01,0.00,29.6,28.8,00.0,38.6,31.3,15.6,0000.0,0008.99,0003.77,0002.58
2022-05-06 07:50:00,,0821.4,5.00,0.00,29.6,28.8,00.0,38.6,31.3,16.0,0000.0,0009.12,0003.90,0002.81
2022-05-06 07:51:00,,0821.4,4.99,0.00,29.6,28.8,00.0,38.6,31.4,16.1,0000.0,0009.18,0004.03,0003.07
2022-05-06 07:52:00,,0821.4,5.01,0.00,29.6,28.8,00.0,38.6,31.4,15.6,0000.0,0009.29,0004.17,0003.22
2022-05-06 07:53:00,,0821.4,5.00,0.00,29.7,28.8,00.0,38.6,31.4,14.9,0000.0,0009.32,0004.26,0003.32
2022-05-06 07:54:00,,0821.4,4.99,0.00,29.7,28.8,00.0,38.6,31.4,14.2,0000.0,0009.14,0004.38,0003.38
2022-05-06 07:55:00,,0821.4,5.00,0.00,29.7,28.9,00.0,38.6,31.4,14.1,0000.0,0009.04,0004.42,0003.43
2022-05-06 07:56:00,,0821.4,5.01,0.00,29.7,28.8,00.0,38.6,31.4,14.4,0000.0,0008.63,0004.46,0003.47
2022-05-06 07:57:00,,0821.4,4.99,0.00,29.7,28.9,00.0,38.6,31.4,14.1,0000.0,0008.61,0004.50,0003.53
2022-05-06 07:58:00,,0821.4,5.00,0.00,29.7,28.9,00.0,38.6,31.5,14.2,0000.0,0008.80,0004.58,0003.58
2022-05-06 07:59:00,,0821.4,5.00,0.00,29.7,28.9,00.0,38.7,31.5,14.6,0000.0,0008.85,0004.58,0003.58
